BEIDOU-3 IGSO-1

Last updated on Sun Mar 15 2026 00:02:56 GMT+0000 (Coordinated Universal Time)

1 44204U 19023A 26073.30660372 -.00000185 00000+0 00000+0 0 9997 2 44204 58.5678 38.6256 0025602 236.0570 126.5518 1.00268202 6266
UTC large
Height (km)
Speed (km/s)
/
Latitude / Longitude
Inclination (degrees)
Orbital Period (minutes)
Azimuth
Elevation
Range (km)
Doppler Factor

Next 0 passes for location: London (51.5072 / 0.1276)

Sorry there are no passes over London.